Flag for Canada Weather past 2 weeks in Rainy River, Ontario, Canada

Now
75 °F

Sunny.


Feels Like: 78 °F
Forecast: 56 / 79 °F
Wind: 12 mph from Southwest

Location: Baudette International Airport

Current Time: Jul 2, 2015 at 6:11:13 PM

Latest Report: Jul 2, 2015 at 4:53 PM


Visibility: 10 mi

Pressure: 29.90 "Hg

Humidity: 47%

Dew point: 53 °F

Location of Rainy RiverLocation

Historic Weather in Rainy River — Graph

°F

Rainy River temperature yesterday

Maximum temperature yesterday: 79 °F (at 4:53 PM)
Minimum temperature yesterday: 50 °F (at 5:53 AM)
Average temperature yesterday: 66 °F

Past Weeks' High & Low Weather Summary

 TemperatureHumidityPressure
High83 °F (Jun 26, 3:53 PM)100% (Jun 21, 3:53 AM)30.18 "Hg (Jun 21, 3:53 AM)
Low45 °F (Jun 19, 4:53 AM)31% (Jun 26, 2:53 PM)29.63 "Hg (Jun 22, 9:53 AM)
Average64 °F72%29.93 "Hg
* Reported Jun 17 4:53 PM — Jul 2 4:53 PM, Rainy River, Weather by CustomWeather, © 2015

Note: Actual official high and low records may vary slightly from our data, if they occured in-between our weather recording intervals... More about our weather records

Advertising

Rainy River weather history for previous 24 hours

 ConditionsComfort  
Time TempWeatherWind HumidityBarometerVisibility
4:53 PM
Thu, Jul 2
75 °FSunny.12 mph47%29.90 "Hg10 mi
3:53 PM75 °FScattered clouds.12 mph47%29.92 "Hg9 mi
2:53 PM75 °FSunny.12 mph45%29.94 "Hg10 mi
1:53 PM75 °FPassing clouds.8 mph43%29.95 "Hg10 mi
12:53 PM74 °FScattered clouds.14 mph41%29.95 "Hg10 mi
11:53 AM73 °FSunny.9 mph48%29.96 "Hg10 mi
10:53 AM71 °FSunny.8 mph59%29.97 "Hg10 mi
9:53 AM69 °FSunny.7 mph63%29.97 "Hg10 mi
8:53 AM67 °FSunny.5 mph66%29.97 "Hg10 mi
7:53 AM64 °FSunny.3 mph75%29.97 "Hg10 mi
6:53 AM61 °FSunny.5 mph81%29.97 "Hg10 mi
5:53 AM60 °FClear.5 mph83%29.97 "Hg10 mi
4:53 AM59 °FClear.3 mph90%29.96 "Hg10 mi
3:53 AM58 °FClear.No wind87%29.95 "Hg10 mi
2:53 AM57 °FClear.No wind93%29.95 "Hg10 mi
1:53 AM57 °FClear.No wind93%29.95 "Hg10 mi
12:53 AM59 °FClear.No wind90%29.95 "Hg10 mi
11:53 PM
Wed, Jul 1
60 °FClear.No wind93%29.96 "Hg10 mi
10:53 PM63 °FClear.No wind90%29.96 "Hg10 mi
9:53 PM64 °FSunny.No wind87%29.95 "Hg10 mi
8:53 PM70 °FSunny.No wind73%29.95 "Hg10 mi
7:53 PM74 °FMild.No wind62%29.94 "Hg10 mi
6:53 PM77 °FSunny.3 mph45%29.94 "Hg10 mi
Weather by CustomWeather, © 2015

See weather overviewHow to use our weather pages